contact:dominique.lefevre@mio.osupytheas.fr, maurice.libes@osupytheas.fr, didier.mallarino@osupytheas.fr
Project:EMSO http://www.emso-fr.org/EMSO-France
Depth: 2436.0 m
Title:EMSO Ligure Ouest : Data MII capteur CSTAR
DateTime,Latitude,Longitude,Instrument_Serial,Reference_Counts,Signal_Counts,Corrected_Signal_raw_counts,Calculated_Beam_c_inverse_meters,Internal_thermistor_counts
DateTime,Latitude,Longitude,Instrument_Serial,Reference_Counts,Signal_Counts,Corrected_Signal_raw_counts,Calculated_Beam_c_inverse_meters,Internal_thermistor_counts
2019-06-17T00:01:02,42.805,6.029,CST-1368DR,9023,12627,15529,0.022,551
2019-06-17T00:04:03,42.805,6.029,CST-1368DR,9023,12628,15530,0.022,551
2019-06-17T00:07:04,42.805,6.029,CST-1368DR,9023,12628,15530,0.022,551
2019-06-17T00:10:06,42.805,6.029,CST-1368DR,9023,12627,15529,0.022,551
2019-06-17T00:13:07,42.805,6.029,CST-1368DR,9023,12628,15530,0.022,551
2019-06-17T00:16:09,42.805,6.029,CST-1368DR,9023,12625,15526,0.023,551
2019-06-17T00:19:10,42.805,6.029,CST-1368DR,9023,12628,15530,0.022,551
2019-06-17T00:22:11,42.805,6.029,CST-1368DR,9023,12628,15530,0.022,551
2019-06-17T00:25:13,42.805,6.029,CST-1368DR,9023,12628,15530,0.022,551
2019-06-17T00:28:14,42.805,6.029,CST-1368DR,9023,12628,15530,0.022,551
2019-06-17T00:31:16,42.805,6.029,CST-1368DR,9023,12628,15530,0.022,551
2019-06-17T00:34:17,42.805,6.029,CST-1368DR,9023,12627,15528,0.023,551
2019-06-17T00:37:19,42.805,6.029,CST-1368DR,9023,12628,15529,0.022,551
2019-06-17T00:40:20,42.805,6.029,CST-1368DR,9023,12628,15530,0.022,551
2019-06-17T00:43:21,42.805,6.029,CST-1368DR,9023,12627,15529,0.022,551
2019-06-17T00:46:23,42.805,6.029,CST-1368DR,9022,12628,15532,0.022,551
2019-06-17T00:49:24,42.805,6.029,CST-1368DR,9022,12628,15532,0.022,551
2019-06-17T00:52:26,42.805,6.029,CST-1368DR,9022,12628,15531,0.022,551
2019-06-17T00:55:27,42.805,6.029,CST-1368DR,9022,12627,15531,0.022,551
2019-06-17T00:58:28,42.805,6.029,CST-1368DR,9022,12628,15531,0.022,551
2019-06-17T01:01:30,42.805,6.029,CST-1368DR,9022,12628,15532,0.022,551
2019-06-17T01:04:31,42.805,6.029,CST-1368DR,9022,12627,15531,0.022,551
2019-06-17T01:07:33,42.805,6.029,CST-1368DR,9022,12628,15531,0.022,551
2019-06-17T01:10:34,42.805,6.029,CST-1368DR,9022,12627,15530,0.022,550
2019-06-17T01:13:35,42.805,6.029,CST-1368DR,9022,12627,15530,0.022,550
2019-06-17T01:16:37,42.805,6.029,CST-1368DR,9022,12628,15531,0.022,551
2019-06-17T01:19:38,42.805,6.029,CST-1368DR,9022,12628,15531,0.022,551
2019-06-17T01:22:40,42.805,6.029,CST-1368DR,9022,12628,15532,0.022,551
2019-06-17T01:25:41,42.805,6.029,CST-1368DR,9022,12627,15530,0.022,551
2019-06-17T01:28:42,42.805,6.029,CST-1368DR,9022,12628,15531,0.022,551
2019-06-17T01:31:44,42.805,6.029,CST-1368DR,9022,12627,15530,0.022,551
2019-06-17T01:34:45,42.805,6.029,CST-1368DR,9022,12627,15530,0.022,551
2019-06-17T01:37:47,42.805,6.029,CST-1368DR,9022,12628,15531,0.022,551
2019-06-17T01:40:48,42.805,6.029,CST-1368DR,9022,12627,15530,0.022,551
2019-06-17T01:43:50,42.805,6.029,CST-1368DR,9022,12628,15531,0.022,551
2019-06-17T01:46:51,42.805,6.029,CST-1368DR,9022,12627,15530,0.022,551
2019-06-17T01:49:52,42.805,6.029,CST-1368DR,9022,12628,15531,0.022,551
2019-06-17T01:52:54,42.805,6.029,CST-1368DR,9022,12625,15528,0.023,551
2019-06-17T01:55:55,42.805,6.029,CST-1368DR,9022,12625,15527,0.023,551
2019-06-17T01:58:57,42.805,6.029,CST-1368DR,9022,12627,15530,0.022,551
2019-06-17T02:01:58,42.805,6.029,CST-1368DR,9022,12626,15529,0.022,551
2019-06-17T02:04:59,42.805,6.029,CST-1368DR,9022,12626,15529,0.022,551
2019-06-17T02:08:01,42.805,6.029,CST-1368DR,9022,12626,15529,0.022,551
2019-06-17T02:11:02,42.805,6.029,CST-1368DR,9022,12627,15530,0.022,551
2019-06-17T02:14:04,42.805,6.029,CST-1368DR,9022,12627,15530,0.022,551
2019-06-17T02:17:05,42.805,6.029,CST-1368DR,9022,12628,15531,0.022,551
2019-06-17T02:20:06,42.805,6.029,CST-1368DR,9022,12627,15530,0.022,551
2019-06-17T02:23:08,42.805,6.029,CST-1368DR,9022,12627,15530,0.022,551
2019-06-17T02:26:09,42.805,6.029,CST-1368DR,9022,12627,15530,0.022,551
2019-06-17T02:29:11,42.805,6.029,CST-1368DR,9022,12626,15529,0.022,551
2019-06-17T02:32:12,42.805,6.029,CST-1368DR,9022,12626,15529,0.022,551
2019-06-17T02:35:13,42.805,6.029,CST-1368DR,9021,12625,15529,0.022,551
2019-06-17T02:38:15,42.805,6.029,CST-1368DR,9021,12624,15528,0.023,551
2019-06-17T02:41:16,42.805,6.029,CST-1368DR,9021,12623,15527,0.023,551
2019-06-17T02:44:18,42.805,6.029,CST-1368DR,9021,12626,15531,0.022,551
2019-06-17T02:47:19,42.805,6.029,CST-1368DR,9022,12626,15529,0.022,551
2019-06-17T02:50:21,42.805,6.029,CST-1368DR,9021,12625,15529,0.022,551
2019-06-17T02:53:22,42.805,6.029,CST-1368DR,9021,12625,15529,0.022,551
2019-06-17T02:56:23,42.805,6.029,CST-1368DR,9021,12626,15530,0.022,551
2019-06-17T02:59:25,42.805,6.029,CST-1368DR,9021,12627,15531,0.022,550
2019-06-17T03:02:26,42.805,6.029,CST-1368DR,9021,12625,15529,0.022,551
2019-06-17T03:05:28,42.805,6.029,CST-1368DR,9021,12626,15530,0.022,551
2019-06-17T03:08:29,42.805,6.029,CST-1368DR,9021,12624,15528,0.023,551
2019-06-17T03:11:30,42.805,6.029,CST-1368DR,9021,12626,15530,0.022,551
2019-06-17T03:14:32,42.805,6.029,CST-1368DR,9021,12626,15531,0.022,551
2019-06-17T03:17:33,42.805,6.029,CST-1368DR,9021,12627,15532,0.022,551
2019-06-17T03:20:35,42.805,6.029,CST-1368DR,9021,12625,15529,0.022,551
2019-06-17T03:23:36,42.805,6.029,CST-1368DR,9021,12626,15531,0.022,551
2019-06-17T03:26:37,42.805,6.029,CST-1368DR,9021,12626,15531,0.022,551
2019-06-17T03:29:39,42.805,6.029,CST-1368DR,9021,12625,15529,0.022,551
2019-06-17T03:32:40,42.805,6.029,CST-1368DR,9021,12626,15531,0.022,551
2019-06-17T03:35:42,42.805,6.029,CST-1368DR,9021,12624,15528,0.023,551
2019-06-17T03:38:43,42.805,6.029,CST-1368DR,9021,12626,15531,0.022,551
2019-06-17T03:41:44,42.805,6.029,CST-1368DR,9021,12625,15529,0.022,551
2019-06-17T03:44:46,42.805,6.029,CST-1368DR,9021,12625,15529,0.022,551
2019-06-17T03:47:47,42.805,6.029,CST-1368DR,9021,12626,15530,0.022,551
2019-06-17T03:50:49,42.805,6.029,CST-1368DR,9021,12626,15530,0.022,551
2019-06-17T03:53:50,42.805,6.029,CST-1368DR,9021,12626,15530,0.022,551
2019-06-17T03:56:52,42.805,6.029,CST-1368DR,9021,12625,15529,0.022,551
2019-06-17T03:59:53,42.805,6.029,CST-1368DR,9021,12626,15530,0.022,551
2019-06-17T04:02:54,42.805,6.029,CST-1368DR,9021,12626,15530,0.022,551
2019-06-17T04:05:56,42.805,6.029,CST-1368DR,9021,12626,15531,0.022,551
2019-06-17T04:08:57,42.805,6.029,CST-1368DR,9021,12626,15530,0.022,551
2019-06-17T04:11:59,42.805,6.029,CST-1368DR,9021,12626,15530,0.022,551
2019-06-17T04:15:00,42.805,6.029,CST-1368DR,9021,12625,15529,0.022,551
2019-06-17T04:18:01,42.805,6.029,CST-1368DR,9021,12625,15529,0.022,551
2019-06-17T04:21:03,42.805,6.029,CST-1368DR,9021,12624,15528,0.023,551
2019-06-17T04:24:04,42.805,6.029,CST-1368DR,9021,12624,15528,0.023,551
2019-06-17T04:27:06,42.805,6.029,CST-1368DR,9020,12623,15529,0.022,551
2019-06-17T04:30:07,42.805,6.029,CST-1368DR,9020,12625,15530,0.022,551
2019-06-17T04:33:09,42.805,6.029,CST-1368DR,9020,12624,15530,0.022,551
2019-06-17T04:36:10,42.805,6.029,CST-1368DR,9020,12625,15531,0.022,551
2019-06-17T04:39:12,42.805,6.029,CST-1368DR,9020,12624,15530,0.022,551
2019-06-17T04:42:13,42.805,6.029,CST-1368DR,9020,12626,15532,0.022,551
2019-06-17T04:45:14,42.805,6.029,CST-1368DR,9020,12624,15530,0.022,551
2019-06-17T04:48:16,42.805,6.029,CST-1368DR,9020,12625,15531,0.022,551
2019-06-17T04:51:17,42.805,6.029,CST-1368DR,9020,12624,15529,0.022,551
2019-06-17T04:54:19,42.805,6.029,CST-1368DR,9020,12624,15530,0.022,551
2019-06-17T04:57:20,42.805,6.029,CST-1368DR,9020,12625,15531,0.022,551
2019-06-17T05:00:21,42.805,6.029,CST-1368DR,9020,12623,15528,0.023,551
2019-06-17T05:03:23,42.805,6.029,CST-1368DR,9020,12624,15530,0.022,551
2019-06-17T05:06:24,42.805,6.029,CST-1368DR,9020,12624,15529,0.022,551
2019-06-17T05:09:26,42.805,6.029,CST-1368DR,9020,12621,15526,0.023,551
2019-06-17T05:12:27,42.805,6.029,CST-1368DR,9020,12624,15529,0.022,551
2019-06-17T05:15:28,42.805,6.029,CST-1368DR,9020,12621,15526,0.023,551
2019-06-17T05:18:30,42.805,6.029,CST-1368DR,9020,12624,15530,0.022,551
2019-06-17T05:21:31,42.805,6.029,CST-1368DR,9020,12624,15530,0.022,551
2019-06-17T05:24:33,42.805,6.029,CST-1368DR,9020,12623,15529,0.022,551
2019-06-17T05:27:34,42.805,6.029,CST-1368DR,9020,12625,15530,0.022,551
2019-06-17T05:30:35,42.805,6.029,CST-1368DR,9020,12624,15529,0.022,551
2019-06-17T05:33:37,42.805,6.029,CST-1368DR,9020,12623,15529,0.022,551
2019-06-17T05:36:38,42.805,6.029,CST-1368DR,9020,12624,15530,0.022,551
2019-06-17T05:39:40,42.805,6.029,CST-1368DR,9020,12621,15526,0.023,551
2019-06-17T05:42:41,42.805,6.029,CST-1368DR,9020,12623,15529,0.022,551
2019-06-17T05:45:43,42.805,6.029,CST-1368DR,9020,12622,15527,0.023,551
2019-06-17T05:48:44,42.805,6.029,CST-1368DR,9020,12623,15529,0.022,551
2019-06-17T05:51:45,42.805,6.029,CST-1368DR,9020,12624,15530,0.022,551
2019-06-17T05:54:47,42.805,6.029,CST-1368DR,9020,12622,15528,0.023,550
2019-06-17T05:57:48,42.805,6.029,CST-1368DR,9020,12623,15528,0.023,551
2019-06-17T06:00:50,42.805,6.029,CST-1368DR,9020,12622,15528,0.023,551
2019-06-17T06:03:51,42.805,6.029,CST-1368DR,9020,12622,15527,0.023,551
2019-06-17T06:06:52,42.805,6.029,CST-1368DR,9020,12624,15529,0.022,551
2019-06-17T06:09:54,42.805,6.029,CST-1368DR,9020,12624,15529,0.022,551
2019-06-17T06:12:55,42.805,6.029,CST-1368DR,9020,12623,15529,0.022,550
2019-06-17T06:15:57,42.805,6.029,CST-1368DR,9020,12623,15528,0.023,551
2019-06-17T06:18:58,42.805,6.029,CST-1368DR,9019,12616,15521,0.024,551
2019-06-17T06:21:59,42.805,6.029,CST-1368DR,9020,12623,15529,0.022,551
2019-06-17T06:25:01,42.805,6.029,CST-1368DR,9020,12623,15529,0.022,551
2019-06-17T06:28:02,42.805,6.029,CST-1368DR,9020,12624,15529,0.022,551
2019-06-17T06:31:04,42.805,6.029,CST-1368DR,9020,12622,15527,0.023,551
2019-06-17T06:34:05,42.805,6.029,CST-1368DR,9019,12623,15530,0.022,551
2019-06-17T06:37:07,42.805,6.029,CST-1368DR,9020,12623,15529,0.022,551
2019-06-17T06:40:08,42.805,6.029,CST-1368DR,9019,12624,15531,0.022,551
2019-06-17T06:43:09,42.805,6.029,CST-1368DR,9019,12623,15529,0.022,551
2019-06-17T06:46:11,42.805,6.029,CST-1368DR,9019,12623,15529,0.022,551
2019-06-17T06:49:12,42.805,6.029,CST-1368DR,9019,12623,15530,0.022,551
2019-06-17T06:52:14,42.805,6.029,CST-1368DR,9019,12621,15528,0.023,551
2019-06-17T06:55:15,42.805,6.029,CST-1368DR,9019,12620,15527,0.023,551
2019-06-17T06:58:16,42.805,6.029,CST-1368DR,9019,12623,15530,0.022,551
2019-06-17T07:01:18,42.805,6.029,CST-1368DR,9019,12621,15528,0.023,551
2019-06-17T07:04:19,42.805,6.029,CST-1368DR,9019,12623,15530,0.022,551
2019-06-17T07:07:21,42.805,6.029,CST-1368DR,9019,12620,15526,0.023,551
2019-06-17T07:10:22,42.805,6.029,CST-1368DR,9019,12621,15528,0.023,551
2019-06-17T07:13:23,42.805,6.029,CST-1368DR,9019,12621,15527,0.023,551
2019-06-17T07:16:25,42.805,6.029,CST-1368DR,9019,12623,15530,0.022,550
2019-06-17T07:19:26,42.805,6.029,CST-1368DR,9019,12621,15528,0.023,551
2019-06-17T07:22:28,42.805,6.029,CST-1368DR,9019,12621,15527,0.023,551
2019-06-17T07:25:29,42.805,6.029,CST-1368DR,9019,12622,15528,0.023,550
2019-06-17T07:28:30,42.805,6.029,CST-1368DR,9019,12621,15527,0.023,551
2019-06-17T07:31:32,42.805,6.029,CST-1368DR,9019,12621,15528,0.023,551
2019-06-17T07:34:33,42.805,6.029,CST-1368DR,9019,12623,15530,0.022,551
2019-06-17T07:37:35,42.805,6.029,CST-1368DR,9019,12622,15528,0.023,551
2019-06-17T07:40:36,42.805,6.029,CST-1368DR,9019,12623,15529,0.022,551
2019-06-17T07:43:38,42.805,6.029,CST-1368DR,9019,12622,15528,0.023,551
2019-06-17T07:46:39,42.805,6.029,CST-1368DR,9019,12623,15530,0.022,551
2019-06-17T07:49:40,42.805,6.029,CST-1368DR,9019,12622,15528,0.023,551
2019-06-17T07:52:42,42.805,6.029,CST-1368DR,9019,12624,15531,0.022,551
2019-06-17T07:55:43,42.805,6.029,CST-1368DR,9019,12621,15528,0.023,551
2019-06-17T07:58:45,42.805,6.029,CST-1368DR,9019,12621,15528,0.023,551
2019-06-17T08:01:46,42.805,6.029,CST-1368DR,9018,12622,15531,0.022,551
2019-06-17T08:04:47,42.805,6.029,CST-1368DR,9018,12621,15529,0.022,551
2019-06-17T08:07:49,42.805,6.029,CST-1368DR,9018,12623,15531,0.022,551
2019-06-17T08:10:50,42.805,6.029,CST-1368DR,9018,12623,15531,0.022,551
2019-06-17T08:13:52,42.805,6.029,CST-1368DR,9018,12623,15531,0.022,551
2019-06-17T08:16:53,42.805,6.029,CST-1368DR,9018,12621,15529,0.022,551
2019-06-17T08:19:54,42.805,6.029,CST-1368DR,9018,12623,15531,0.022,550
2019-06-17T08:22:56,42.805,6.029,CST-1368DR,9018,12622,15530,0.022,550
2019-06-17T08:25:57,42.805,6.029,CST-1368DR,9018,12623,15531,0.022,551
2019-06-17T08:28:59,42.805,6.029,CST-1368DR,9018,12622,15531,0.022,551
2019-06-17T08:32:00,42.805,6.029,CST-1368DR,9018,12621,15529,0.022,551
2019-06-17T08:35:01,42.805,6.029,CST-1368DR,9018,12623,15531,0.022,551
2019-06-17T08:38:03,42.805,6.029,CST-1368DR,9018,12623,15532,0.022,551
2019-06-17T08:41:04,42.805,6.029,CST-1368DR,9018,12622,15530,0.022,551
2019-06-17T08:44:06,42.805,6.029,CST-1368DR,9018,12622,15530,0.022,551
2019-06-17T08:47:07,42.805,6.029,CST-1368DR,9018,12623,15531,0.022,551
2019-06-17T08:50:09,42.805,6.029,CST-1368DR,9018,12621,15529,0.022,550
2019-06-17T08:53:10,42.805,6.029,CST-1368DR,9018,12623,15531,0.022,550
2019-06-17T08:56:11,42.805,6.029,CST-1368DR,9018,12622,15530,0.022,551
2019-06-17T08:59:13,42.805,6.029,CST-1368DR,9018,12621,15530,0.022,550
2019-06-17T09:02:14,42.805,6.029,CST-1368DR,9018,12620,15528,0.023,551
2019-06-17T09:05:16,42.805,6.029,CST-1368DR,9018,12621,15530,0.022,551
2019-06-17T09:08:17,42.805,6.029,CST-1368DR,9018,12620,15528,0.023,551
2019-06-17T09:11:18,42.805,6.029,CST-1368DR,9018,12623,15531,0.022,551
2019-06-17T09:14:20,42.805,6.029,CST-1368DR,9018,12620,15528,0.023,551
2019-06-17T09:17:21,42.805,6.029,CST-1368DR,9018,12621,15530,0.022,551
2019-06-17T09:20:23,42.805,6.029,CST-1368DR,9018,12621,15529,0.022,550
2019-06-17T09:23:24,42.805,6.029,CST-1368DR,9018,12621,15529,0.022,551
2019-06-17T09:26:25,42.805,6.029,CST-1368DR,9018,12619,15527,0.023,551
2019-06-17T09:29:27,42.805,6.029,CST-1368DR,9017,12620,15530,0.022,551
2019-06-17T09:32:28,42.805,6.029,CST-1368DR,9018,12621,15530,0.022,551
2019-06-17T09:35:30,42.805,6.029,CST-1368DR,9018,12621,15529,0.022,551
2019-06-17T09:38:31,42.805,6.029,CST-1368DR,9017,12619,15528,0.023,551
2019-06-17T09:41:32,42.805,6.029,CST-1368DR,9018,12623,15531,0.022,551
2019-06-17T09:44:34,42.805,6.029,CST-1368DR,9017,12620,15530,0.022,551
2019-06-17T09:47:35,42.805,6.029,CST-1368DR,9017,12622,15532,0.022,551
2019-06-17T09:50:37,42.805,6.029,CST-1368DR,9017,12622,15532,0.022,551
2019-06-17T09:53:38,42.805,6.029,CST-1368DR,9017,12621,15531,0.022,551
2019-06-17T09:56:40,42.805,6.029,CST-1368DR,9017,12621,15531,0.022,551
2019-06-17T09:59:41,42.805,6.029,CST-1368DR,9017,12619,15529,0.022,551
2019-06-17T10:02:42,42.805,6.029,CST-1368DR,9017,12622,15532,0.022,550
2019-06-17T10:05:44,42.805,6.029,CST-1368DR,9017,12622,15532,0.022,551
2019-06-17T10:08:45,42.805,6.029,CST-1368DR,9017,12618,15527,0.023,551
2019-06-17T10:11:47,42.805,6.029,CST-1368DR,9017,12620,15529,0.022,551
2019-06-17T10:14:48,42.805,6.029,CST-1368DR,9017,12620,15530,0.022,551
2019-06-17T10:17:49,42.805,6.029,CST-1368DR,9017,12618,15527,0.023,551
2019-06-17T10:20:51,42.805,6.029,CST-1368DR,9017,12621,15531,0.022,551
2019-06-17T10:23:52,42.805,6.029,CST-1368DR,9017,12621,15530,0.022,551
2019-06-17T10:26:54,42.805,6.029,CST-1368DR,9017,12621,15531,0.022,551
2019-06-17T10:29:55,42.805,6.029,CST-1368DR,9017,12620,15530,0.022,551
2019-06-17T10:32:56,42.805,6.029,CST-1368DR,9017,12621,15530,0.022,551
2019-06-17T10:35:58,42.805,6.029,CST-1368DR,9017,12621,15531,0.022,551
2019-06-17T10:38:59,42.805,6.029,CST-1368DR,9017,12620,15530,0.022,551
2019-06-17T10:42:01,42.805,6.029,CST-1368DR,9017,12621,15530,0.022,551
2019-06-17T10:45:02,42.805,6.029,CST-1368DR,9017,12619,15529,0.022,551
2019-06-17T10:48:04,42.805,6.029,CST-1368DR,9017,12621,15530,0.022,551
2019-06-17T10:51:05,42.805,6.029,CST-1368DR,9017,12621,15531,0.022,551
2019-06-17T10:54:06,42.805,6.029,CST-1368DR,9017,12620,15529,0.022,551
2019-06-17T10:57:08,42.805,6.029,CST-1368DR,9017,12620,15530,0.022,551
2019-06-17T11:00:09,42.805,6.029,CST-1368DR,9017,12620,15530,0.022,551
2019-06-17T11:03:11,42.805,6.029,CST-1368DR,9017,12620,15530,0.022,551
2019-06-17T11:06:12,42.805,6.029,CST-1368DR,9016,12619,15530,0.022,551
2019-06-17T11:09:13,42.805,6.029,CST-1368DR,9016,12621,15532,0.022,551
2019-06-17T11:12:15,42.805,6.029,CST-1368DR,9017,12621,15530,0.022,551
2019-06-17T11:15:16,42.805,6.029,CST-1368DR,9016,12619,15530,0.022,550
2019-06-17T11:18:18,42.805,6.029,CST-1368DR,9016,12620,15531,0.022,551
2019-06-17T11:21:19,42.805,6.029,CST-1368DR,9016,12621,15532,0.022,551
2019-06-17T11:24:20,42.805,6.029,CST-1368DR,9016,12620,15531,0.022,551
2019-06-17T11:27:22,42.805,6.029,CST-1368DR,9016,12620,15531,0.022,551
2019-06-17T11:30:23,42.805,6.029,CST-1368DR,9016,12620,15531,0.022,551
2019-06-17T11:33:25,42.805,6.029,CST-1368DR,9016,12620,15531,0.022,551
2019-06-17T11:36:26,42.805,6.029,CST-1368DR,9016,12620,15531,0.022,551
2019-06-17T11:39:27,42.805,6.029,CST-1368DR,9016,12620,15531,0.022,551
2019-06-17T11:42:29,42.805,6.029,CST-1368DR,9016,12616,15526,0.023,551
2019-06-17T11:45:30,42.805,6.029,CST-1368DR,9016,12620,15531,0.022,551
2019-06-17T11:48:32,42.805,6.029,CST-1368DR,9016,12620,15531,0.022,551
2019-06-17T11:51:33,42.805,6.029,CST-1368DR,9016,12618,15529,0.022,551
2019-06-17T11:54:35,42.805,6.029,CST-1368DR,9016,12620,15531,0.022,551
2019-06-17T11:57:36,42.805,6.029,CST-1368DR,9016,12618,15529,0.022,551
2019-06-17T12:00:37,42.805,6.029,CST-1368DR,9016,12619,15530,0.022,551
2019-06-17T12:03:39,42.805,6.029,CST-1368DR,9016,12619,15530,0.022,551
2019-06-17T12:06:40,42.805,6.029,CST-1368DR,9016,12618,15529,0.022,551
2019-06-17T12:09:42,42.805,6.029,CST-1368DR,9016,12620,15531,0.022,551
2019-06-17T12:12:43,42.805,6.029,CST-1368DR,9016,12618,15529,0.022,551
2019-06-17T12:15:44,42.805,6.029,CST-1368DR,9016,12618,15529,0.022,551
2019-06-17T12:18:46,42.805,6.029,CST-1368DR,9016,12619,15530,0.022,551
2019-06-17T12:21:47,42.805,6.029,CST-1368DR,9016,12617,15527,0.023,551
2019-06-17T12:24:49,42.805,6.029,CST-1368DR,9016,12618,15529,0.022,551
2019-06-17T12:27:50,42.805,6.029,CST-1368DR,9016,12619,15530,0.022,551
2019-06-17T12:30:51,42.805,6.029,CST-1368DR,9016,12620,15531,0.022,551
2019-06-17T12:33:53,42.805,6.029,CST-1368DR,9015,12618,15530,0.022,551
2019-06-17T12:36:54,42.805,6.029,CST-1368DR,9015,12612,15523,0.024,551
2019-06-17T12:39:56,42.805,6.029,CST-1368DR,9016,12618,15529,0.022,551
2019-06-17T12:42:57,42.805,6.029,CST-1368DR,9015,12619,15532,0.022,551
2019-06-17T12:45:58,42.805,6.029,CST-1368DR,9015,12617,15529,0.022,551
2019-06-17T12:49:00,42.805,6.029,CST-1368DR,9015,12620,15532,0.022,551
2019-06-17T12:52:01,42.805,6.029,CST-1368DR,9015,12620,15532,0.022,551
2019-06-17T12:55:03,42.805,6.029,CST-1368DR,9015,12619,15532,0.022,551
2019-06-17T12:58:04,42.805,6.029,CST-1368DR,9015,12618,15531,0.022,551
2019-06-17T13:01:06,42.805,6.029,CST-1368DR,9015,12618,15530,0.022,550
2019-06-17T13:04:07,42.805,6.029,CST-1368DR,9015,12619,15531,0.022,551
2019-06-17T13:07:08,42.805,6.029,CST-1368DR,9015,12620,15532,0.022,551
2019-06-17T13:10:10,42.805,6.029,CST-1368DR,9015,12618,15530,0.022,551
2019-06-17T13:13:11,42.805,6.029,CST-1368DR,9015,12618,15531,0.022,551
2019-06-17T13:16:13,42.805,6.029,CST-1368DR,9015,12616,15528,0.023,551
2019-06-17T13:19:14,42.805,6.029,CST-1368DR,9015,12618,15531,0.022,550
2019-06-17T13:22:15,42.805,6.029,CST-1368DR,9015,12619,15531,0.022,551
2019-06-17T13:25:17,42.805,6.029,CST-1368DR,9015,12619,15532,0.022,551
2019-06-17T13:28:18,42.805,6.029,CST-1368DR,9015,12619,15532,0.022,551
2019-06-17T13:31:20,42.805,6.029,CST-1368DR,9015,12618,15530,0.022,551
2019-06-17T13:34:21,42.805,6.029,CST-1368DR,9015,12618,15531,0.022,551
2019-06-17T13:37:22,42.805,6.029,CST-1368DR,9015,12618,15531,0.022,551
2019-06-17T13:40:24,42.805,6.029,CST-1368DR,9015,12617,15528,0.023,551
2019-06-17T13:43:25,42.805,6.029,CST-1368DR,9015,12616,15528,0.023,551
2019-06-17T13:46:27,42.805,6.029,CST-1368DR,9015,12617,15529,0.022,551
2019-06-17T13:49:28,42.805,6.029,CST-1368DR,9015,12618,15531,0.022,551
2019-06-17T13:52:29,42.805,6.029,CST-1368DR,9015,12617,15528,0.023,551
2019-06-17T13:55:31,42.805,6.029,CST-1368DR,9015,12618,15530,0.022,551
2019-06-17T13:58:32,42.805,6.029,CST-1368DR,9015,12618,15530,0.022,551
2019-06-17T14:01:34,42.805,6.029,CST-1368DR,9015,12618,15530,0.022,551
2019-06-17T14:04:35,42.805,6.029,CST-1368DR,9015,12618,15530,0.022,551
2019-06-17T14:07:37,42.805,6.029,CST-1368DR,9015,12617,15529,0.022,551
2019-06-17T14:10:38,42.805,6.029,CST-1368DR,9015,12618,15530,0.022,551
2019-06-17T14:13:39,42.805,6.029,CST-1368DR,9014,12611,15523,0.024,551
2019-06-17T14:16:41,42.805,6.029,CST-1368DR,9015,12617,15529,0.022,551
2019-06-17T14:19:42,42.805,6.029,CST-1368DR,9015,12618,15530,0.022,551
2019-06-17T14:22:44,42.805,6.029,CST-1368DR,9014,12618,15532,0.022,551
2019-06-17T14:25:45,42.805,6.029,CST-1368DR,9015,12618,15530,0.022,551
2019-06-17T14:28:46,42.805,6.029,CST-1368DR,9015,12618,15530,0.022,551
2019-06-17T14:31:48,42.805,6.029,CST-1368DR,9015,12618,15530,0.022,551
2019-06-17T14:34:49,42.805,6.029,CST-1368DR,9014,12618,15531,0.022,551
2019-06-17T14:37:51,42.805,6.029,CST-1368DR,9014,12616,15529,0.022,551
2019-06-17T14:40:52,42.805,6.029,CST-1368DR,9014,12618,15532,0.022,551
2019-06-17T14:43:53,42.805,6.029,CST-1368DR,9014,12617,15530,0.022,551
2019-06-17T14:46:55,42.805,6.029,CST-1368DR,9015,12618,15530,0.022,551
2019-06-17T14:49:56,42.805,6.029,CST-1368DR,9014,12617,15531,0.022,551
2019-06-17T14:52:58,42.805,6.029,CST-1368DR,9014,12618,15532,0.022,550
2019-06-17T14:55:59,42.805,6.029,CST-1368DR,9014,12618,15532,0.022,551
2019-06-17T14:59:01,42.805,6.029,CST-1368DR,9014,12617,15531,0.022,551
2019-06-17T15:02:02,42.805,6.029,CST-1368DR,9014,12616,15529,0.022,551
2019-06-17T15:05:03,42.805,6.029,CST-1368DR,9014,12615,15528,0.023,551
2019-06-17T15:08:05,42.805,6.029,CST-1368DR,9014,12617,15531,0.022,550
2019-06-17T15:11:06,42.805,6.029,CST-1368DR,9014,12617,15530,0.022,551
2019-06-17T15:14:08,42.805,6.029,CST-1368DR,9014,12616,15530,0.022,551
2019-06-17T15:17:09,42.805,6.029,CST-1368DR,9014,12617,15530,0.022,551
2019-06-17T15:20:10,42.805,6.029,CST-1368DR,9014,12616,15530,0.022,551
2019-06-17T15:23:12,42.805,6.029,CST-1368DR,9014,12617,15530,0.022,551
2019-06-17T15:26:13,42.805,6.029,CST-1368DR,9014,12616,15530,0.022,551
2019-06-17T15:29:15,42.805,6.029,CST-1368DR,9014,12618,15532,0.022,551
2019-06-17T15:32:16,42.805,6.029,CST-1368DR,9014,12616,15529,0.022,551
2019-06-17T15:35:17,42.805,6.029,CST-1368DR,9014,12617,15531,0.022,551
2019-06-17T15:38:19,42.805,6.029,CST-1368DR,9014,12615,15528,0.023,551
2019-06-17T15:41:20,42.805,6.029,CST-1368DR,9014,12616,15529,0.022,551
2019-06-17T15:44:22,42.805,6.029,CST-1368DR,9014,12616,15530,0.022,551
2019-06-17T15:47:23,42.805,6.029,CST-1368DR,9014,12617,15530,0.022,550
2019-06-17T15:50:24,42.805,6.029,CST-1368DR,9014,12611,15523,0.024,551
2019-06-17T15:53:26,42.805,6.029,CST-1368DR,9014,12618,15532,0.022,551
2019-06-17T15:56:27,42.805,6.029,CST-1368DR,9014,12617,15530,0.022,551
2019-06-17T15:59:29,42.805,6.029,CST-1368DR,9014,12617,15531,0.022,550
2019-06-17T16:02:30,42.805,6.029,CST-1368DR,9014,12614,15527,0.023,551
2019-06-17T16:05:32,42.805,6.029,CST-1368DR,9014,12617,15530,0.022,551
2019-06-17T16:08:33,42.805,6.029,CST-1368DR,9014,12616,15529,0.022,551
2019-06-17T16:11:34,42.805,6.029,CST-1368DR,9014,12616,15529,0.022,551
2019-06-17T16:14:36,42.805,6.029,CST-1368DR,9014,12612,15524,0.024,551
2019-06-17T16:17:37,42.805,6.029,CST-1368DR,9014,12616,15529,0.022,551
2019-06-17T16:20:39,42.805,6.029,CST-1368DR,9014,12618,15531,0.022,551
2019-06-17T16:23:40,42.805,6.029,CST-1368DR,9014,12616,15529,0.022,551
2019-06-17T16:26:41,42.805,6.029,CST-1368DR,9014,12617,15530,0.022,551
2019-06-17T16:29:43,42.805,6.029,CST-1368DR,9014,12614,15527,0.023,551
2019-06-17T16:32:44,42.805,6.029,CST-1368DR,9014,12617,15531,0.022,551
2019-06-17T16:35:46,42.805,6.029,CST-1368DR,9014,12616,15529,0.022,551